Regional Weather Roundup
Issued by NWS

Home | Current Version | Previous Version | Graphics & Text | Print | Product List | Glossary On
Versions: 1 2 3 4 5 6 7 8 9 10 11 12 13 14 15 16 17 18 19 20 21 22 23 24 25 26 27 28 29 30 31 32 33 34 35 36 37 38 39 40 41 42 43 44 45 46 47 48 49 50
000
ASUS43 KBIS 251920
RWRND

NORTH DAKOTA REGIONAL WEATHER ROUNDUP
NATIONAL WEATHER SERVICE BISMARCK ND
200 PM CDT MON MAY 25 2015

NOTE: "FAIR" INDICATES FEW OR NO CLOUDS BELOW 12,000 FEET WITH NO
SIGNIFICANT WEATHER AND/OR OBSTRUCTIONS TO VISIBILITY.


NDZ001>003-009>011-017-252000-
NORTHWEST NORTH DAKOTA

CITY           SKY/WX    TMP DP  RH WIND       PRES   REMARKS
WILLISTON      PTSUNNY   77  44  30 VRB6      29.85F
MINOT          MOSUNNY   76  43  30 NW3       29.82F
MINOT AFB      MOSUNNY   78  43  28 NE9       29.81F
$$

NDZ018>021-031>035-040>046-252000-
SOUTHWEST NORTH DAKOTA

CITY           SKY/WX    TMP DP  RH WIND       PRES   REMARKS
BISMARCK       CLOUDY    66  53  63 SW8       29.86S
DICKINSON      LGT RAIN  60  52  74 E8        29.88S
GARRISON         N/A     73  49  42 S8        29.84F
HETTINGER ARPT LGT RAIN  56  53  90 E14       29.89S
$$

NDZ004>008-012>016-024-026-027-054-252000-
NORTHEAST NORTH DAKOTA

CITY           SKY/WX    TMP DP  RH WIND       PRES   REMARKS
GRAND FORKS    CLOUDY    72  51  47 N3        29.75S
GRND FRKS AFB  CLOUDY    72  51  47 NE5       29.76S
DEVILS LAKE    MOSUNNY   77  37  24 NE12G21   29.77S
$$

NDZ022-023-025-028>030-036>039-047>053-252000-
SOUTHEAST NORTH DAKOTA

CITY           SKY/WX    TMP DP  RH WIND       PRES   REMARKS
FARGO          CLOUDY    65  54  67 NE16G25   29.77S
JAMESTOWN      PTSUNNY   71  54  54 CALM      29.78F
$$



USA.gov is the U.S. government's official web portal to all federal, state and local government web resources and services.